When you browse on this site, cookies collect data to enhance your experience and personalize the content and advertising you see.
Visit our Privacy Policy to learn more. By continuing to use the site, you agree to this use of cookies and data.
  • En España
  • Lista de países
  • Para 7 días
  • Temperatura del agua
  • El tiempo en el mapa
  • Informadores
  • user-avatar
    Iniciar sesión

    Tiempo cada hora Melipilla

    Hoy, 27 Enero, Lunes

    Tiempo Temperatura Precipitaciones Viento Presión Humedad
    00:00 +17°C° 0 mm 0 mps 746 mmHg 79%
    01:00 +17°C° 0 mm 0 mps 745 mmHg 77%
    02:00 +17°C° 0 mm 0 mps 745 mmHg 76%
    03:00 +17°C° 0 mm 0 mps 745 mmHg 75%
    04:00 +17°C° 0 mm 0 mps 745 mmHg 74%
    05:00 +19°C° 0 mm 0 mps 745 mmHg 66%
    06:00 +21°C° 0 mm 0 mps 745 mmHg 57%
    07:00 +25°C° 0 mm 1 mps 746 mmHg 47%
    08:00 +28°C° 0 mm 1 mps 746 mmHg 41%
    09:00 +31°C° 0 mm 2 mps 745 mmHg 34%
    10:00 +34°C° 0 mm 3 mps 745 mmHg 27%
    11:00 +35°C° 0 mm 4 mps 745 mmHg 25%
    12:00 +36°C° 0 mm 5 mps 745 mmHg 23%
    13:00 +37°C° 0 mm 5 mps 745 mmHg 21%
    14:00 +36°C° 0 mm 5 mps 745 mmHg 21%
    15:00 +35°C° 0 mm 5 mps 745 mmHg 21%
    16:00 +34°C° 0 mm 5 mps 745 mmHg 21%
    17:00 +29°C° 0 mm 4 mps 744 mmHg 32%
    18:00 +24°C° 0 mm 3 mps 744 mmHg 44%
    19:00 +19°C° 0 mm 2 mps 744 mmHg 55%
    20:00 +18°C° 0 mm 2 mps 745 mmHg 63%
    21:00 +18°C° 0 mm 1 mps 745 mmHg 71%
    22:00 +15°C° 0 mm 1 mps 745 mmHg 79%
    23:00 +15°C° 0 mm 1 mps 744 mmHg 80%

    Mañana, 28 Enero, Martes

    Tiempo Temperatura Precipitaciones Viento Presión Humedad
    00:00 +15°C° 0 mm 1 mps 744 mmHg 80%
    01:00 +14°C° 0 mm 1 mps 744 mmHg 81%
    02:00 +13°C° 0 mm 0 mps 744 mmHg 80%
    03:00 +14°C° 0 mm 0 mps 744 mmHg 79%
    04:00 +14°C° 0 mm 0 mps 743 mmHg 78%
    05:00 +15°C° 0 mm 0 mps 744 mmHg 70%
    06:00 +17°C° 0 mm 0 mps 744 mmHg 62%
    07:00 +21°C° 0 mm 1 mps 744 mmHg 54%
    08:00 +24°C° 0 mm 1 mps 744 mmHg 46%
    09:00 +27°C° 0 mm 2 mps 744 mmHg 38%
    10:00 +30°C° 0 mm 3 mps 745 mmHg 30%
    11:00 +32°C° 0 mm 4 mps 745 mmHg 30%
    12:00 +33°C° 0 mm 5 mps 745 mmHg 30%
    13:00 +34°C° 0 mm 6 mps 745 mmHg 30%
    14:00 +33°C° 0 mm 5 mps 745 mmHg 35%
    15:00 +30°C° 0 mm 5 mps 744 mmHg 39%
    16:00 +29°C° 0 mm 5 mps 744 mmHg 44%
    17:00 +26°C° 0 mm 4 mps 745 mmHg 57%
    18:00 +22°C° 0 mm 3 mps 745 mmHg 70%
    19:00 +19°C° 0 mm 2 mps 745 mmHg 82%
    20:00 +18°C° 0 mm 2 mps 745 mmHg 87%
    21:00 +18°C° 0 mm 1 mps 745 mmHg 91%
    22:00 +16°C° 0 mm 1 mps 745 mmHg 95%
    23:00 +15°C° 0 mm 1 mps 745 mmHg 95%

    Pasado mañana, 29 Enero, Miércoles

    Tiempo Temperatura Precipitaciones Viento Presión Humedad
    00:00 +15°C° 0 mm 1 mps 745 mmHg 95%
    01:00 +14°C° 0 mm 1 mps 744 mmHg 94%
    02:00 +14°C° 0 mm 1 mps 744 mmHg 94%
    03:00 +14°C° 0 mm 1 mps 744 mmHg 93%
    04:00 +14°C° 0 mm 1 mps 744 mmHg 93%
    05:00 +15°C° 0 mm 1 mps 745 mmHg 87%
    06:00 +16°C° 0 mm 1 mps 745 mmHg 81%
    07:00 +19°C° 0 mm 1 mps 745 mmHg 76%
    08:00 +22°C° 0 mm 1 mps 745 mmHg 63%
    09:00 +25°C° 0 mm 2 mps 745 mmHg 51%
    10:00 +28°C° 0 mm 3 mps 745 mmHg 39%
    11:00 +29°C° 0 mm 4 mps 745 mmHg 35%
    12:00 +30°C° 0 mm 4 mps 745 mmHg 32%
    13:00 +32°C° 0 mm 5 mps 745 mmHg 29%
    14:00 +30°C° 0 mm 5 mps 745 mmHg 30%
    15:00 +29°C° 0 mm 5 mps 745 mmHg 32%
    16:00 +28°C° 0 mm 5 mps 745 mmHg 33%
    17:00 +25°C° 0 mm 4 mps 746 mmHg 45%
    18:00 +20°C° 0 mm 3 mps 746 mmHg 57%
    19:00 +17°C° 0 mm 2 mps 746 mmHg 70%
    20:00 +16°C° 0 mm 1 mps 746 mmHg 75%
    21:00 +14°C° 0 mm 1 mps 746 mmHg 80%
    22:00 +12°C° 0 mm 0 mps 746 mmHg 86%
    23:00 +12°C° 0 mm 0 mps 746 mmHg 86%

    30 Enero, Jueves

    Tiempo Temperatura Precipitaciones Viento Presión Humedad
    00:00 +12°C° 0 mm 0 mps 745 mmHg 87%
    01:00 +11°C° 0 mm 0 mps 745 mmHg 87%
    02:00 +12°C° 0 mm 0 mps 745 mmHg 86%
    03:00 +12°C° 0 mm 0 mps 745 mmHg 85%
    04:00 +12°C° 0 mm 0 mps 745 mmHg 84%
    05:00 +14°C° 0 mm 0 mps 745 mmHg 75%
    06:00 +16°C° 0 mm 0 mps 745 mmHg 65%
    07:00 +19°C° 0 mm 0 mps 745 mmHg 55%
    08:00 +24°C° 0 mm 1 mps 745 mmHg 47%
    09:00 +27°C° 0 mm 2 mps 745 mmHg 39%
    10:00 +30°C° 0 mm 3 mps 745 mmHg 31%
    11:00 +32°C° 0 mm 4 mps 745 mmHg 29%
    12:00 +34°C° 0 mm 4 mps 745 mmHg 27%
    13:00 +35°C° 0 mm 5 mps 745 mmHg 25%
    14:00 +33°C° 0 mm 5 mps 745 mmHg 27%
    15:00 +32°C° 0 mm 5 mps 745 mmHg 29%
    16:00 +30°C° 0 mm 5 mps 745 mmHg 31%
    17:00 +26°C° 0 mm 4 mps 745 mmHg 43%
    18:00 +21°C° 0 mm 3 mps 745 mmHg 55%
    19:00 +17°C° 0 mm 2 mps 745 mmHg 67%
    20:00 +16°C° 0 mm 1 mps 746 mmHg 72%
    21:00 +15°C° 0 mm 1 mps 746 mmHg 77%
    22:00 +13°C° 0 mm 0 mps 746 mmHg 81%
    23:00 +13°C° 0 mm 0 mps 745 mmHg 81%

    31 Enero, Viernes

    Tiempo Temperatura Precipitaciones Viento Presión Humedad
    00:00 +13°C° 0 mm 0 mps 745 mmHg 80%
    01:00 +12°C° 0 mm 0 mps 745 mmHg 80%
    02:00 +12°C° 0 mm 0 mps 745 mmHg 79%
    03:00 +12°C° 0 mm 0 mps 745 mmHg 79%
    04:00 +12°C° 0 mm 0 mps 745 mmHg 78%
    05:00 +14°C° 0 mm 0 mps 745 mmHg 69%
    06:00 +17°C° 0 mm 0 mps 745 mmHg 59%
    07:00 +19°C° 0 mm 0 mps 745 mmHg 50%
    08:00 +24°C° 0 mm 1 mps 745 mmHg 42%
    09:00 +27°C° 0 mm 2 mps 746 mmHg 34%
    10:00 +30°C° 0 mm 3 mps 746 mmHg 26%
    11:00 +32°C° 0 mm 4 mps 746 mmHg 25%
    12:00 +33°C° 0 mm 4 mps 746 mmHg 25%
    13:00 +33°C° 0 mm 5 mps 745 mmHg 24%
    14:00 +33°C° 0 mm 5 mps 745 mmHg 25%
    15:00 +32°C° 0 mm 5 mps 745 mmHg 26%
    16:00 +30°C° 0 mm 4 mps 745 mmHg 28%
    17:00 +26°C° 0 mm 3 mps 745 mmHg 39%
    18:00 +23°C° 0 mm 2 mps 745 mmHg 51%
    19:00 +19°C° 0 mm 1 mps 745 mmHg 62%
    20:00 +18°C° 0 mm 1 mps 745 mmHg 68%
    21:00 +14°C° 0 mm 0 mps 745 mmHg 74%
    22:00 +13°C° 0 mm 0 mps 745 mmHg 80%
    23:00 +13°C° 0 mm 0 mps 745 mmHg 81%

    1 Febrero, Sábado

    Tiempo Temperatura Precipitaciones Viento Presión Humedad
    00:00 +12°C° 0 mm 0 mps 745 mmHg 81%
    01:00 +12°C° 0 mm 0 mps 744 mmHg 81%
    02:00 +12°C° 0 mm 0 mps 744 mmHg 82%
    03:00 +12°C° 0 mm 0 mps 744 mmHg 82%
    04:00 +11°C° 0 mm 0 mps 744 mmHg 82%
    05:00 +14°C° 0 mm 0 mps 744 mmHg 73%
    06:00 +16°C° 0 mm 0 mps 744 mmHg 64%
    07:00 +18°C° 0 mm 0 mps 744 mmHg 55%
    08:00 +23°C° 0 mm 1 mps 744 mmHg 47%
    09:00 +25°C° 0 mm 2 mps 745 mmHg 38%
    10:00 +28°C° 0 mm 3 mps 745 mmHg 30%
    11:00 +29°C° 0 mm 4 mps 745 mmHg 30%
    12:00 +30°C° 0 mm 4 mps 745 mmHg 30%
    13:00 +30°C° 0 mm 5 mps 745 mmHg 30%
    14:00 +30°C° 0 mm 5 mps 745 mmHg 32%
    15:00 +29°C° 0 mm 5 mps 745 mmHg 34%
    16:00 +28°C° 0 mm 5 mps 745 mmHg 36%
    17:00 +25°C° 0 mm 4 mps 745 mmHg 51%
    18:00 +21°C° 0 mm 3 mps 745 mmHg 67%
    19:00 +17°C° 0 mm 2 mps 745 mmHg 83%
    20:00 +16°C° 0 mm 2 mps 746 mmHg 87%
    21:00 +15°C° 0 mm 1 mps 746 mmHg 91%
    22:00 +13°C° 0 mm 0 mps 747 mmHg 95%
    23:00 +13°C° 0 mm 0 mps 746 mmHg 94%
    Mostrar más